Location: Burjasot
(39.5167°N, 0.4167°W)
Time: 15:06:24
(UTC+02:00)

ISS - Visible Passes

Search period start: 20 May 2019 00:00
Search period end: 30 May 2019 00:00
Orbit: 407 x 410 km, 51.6° (Epoch: 20 May)

Date Brightness Start Highest point End Pass type
(mag) Time Alt. Az. Time Alt. Az. Time Alt. Az.
20 May -0.2 01:16:04 10° NNW 01:16:46 10° N 01:17:28 10° N visible
20 May -0.5 02:52:35 10° NNW 02:54:29 14° NNE 02:56:23 10° NE visible
20 May -3.2 04:28:22 10° NW 04:31:38 56° NE 04:34:53 10° ESE visible
20 May -2.1 06:05:57 10° W 06:07:53 15° SW 06:09:48 10° SSW visible
20 May -1.9 22:45:10 10° W 22:48:10 32° NNW 22:51:12 10° NE visible
21 May -0.3 00:24:16 10° NNW 00:25:32 12° N 00:26:50 10° NNE visible
21 May -0.3 02:01:59 10° NNW 02:03:18 12° N 02:04:30 10° NNE visible
21 May -1.7 05:19:20 14° S 05:19:20 14° S 05:20:01 10° SSE visible
21 May -3.0 21:53:57 10° WSW 21:57:11 55° NW 22:00:26 10° NE visible
21 May -0.6 23:32:27 10° NW 23:34:20 14° NNW 23:36:13 10° NNE visible
22 May -0.3 01:11:21 10° N 01:12:03 10° N 01:12:46 10° NNE visible
22 May -0.8 22:40:45 10° WNW 22:43:10 18° NNW 22:45:35 10° NNE visible
23 May -0.3 00:20:18 10° N 00:20:47 10° N 00:21:15 10° N visible
23 May -0.5 01:56:16 10° NNW 01:57:15 14° N 01:57:15 14° N visible
23 May -1.4 21:49:12 10° W 21:52:03 26° NNW 21:54:53 10° NNE visible
23 May -0.4 23:28:33 10° NNW 23:29:31 11° N 23:30:28 10° N visible
24 May -0.6 01:05:38 10° NNW 01:07:15 13° NNE 01:07:45 13° NNE visible
24 May -0.6 22:36:41 10° NW 22:38:15 13° NNW 22:39:49 10° NNE visible
25 May -0.5 00:15:00 10° N 00:15:59 11° N 00:16:59 10° NNE visible
25 May -0.5 01:50:34 10° NNW 01:51:00 13° NNW 01:51:00 13° NNW visible
25 May -0.8 21:44:52 10° WNW 21:47:01 16° NNW 21:49:09 10° NNE visible
25 May -0.4 23:24:13 10° N 23:24:41 10° N 23:25:10 10° N visible
26 May -1.0 00:59:51 10° NNW 01:01:37 18° N 01:01:37 18° N visible
26 May -0.5 22:32:43 10° NNW 22:33:22 10° N 22:34:02 10° N visible
27 May -1.0 00:09:10 10° NNW 00:11:05 14° NNE 00:12:14 13° NE visible
27 May -0.8 23:18:30 10° NNW 23:19:48 12° N 23:21:07 10° NE visible
28 May -1.2 00:54:07 10° NW 00:55:36 21° NNW 00:55:36 21° NNW visible
28 May -0.7 22:27:46 10° N 22:28:29 10° N 22:29:11 10° NNE visible
29 May -1.7 00:03:20 10° NNW 00:06:01 22° NNE 00:06:15 22° NNE visible
29 May -1.2 23:12:36 10° NNW 23:14:48 16° NNE 23:16:56 10° ENE visible
